Regional Weather Roundup
Issued by NWS

Home | Current Version | Previous Version | Graphics & Text | Print | Product List | Glossary On
Versions: 1 2 3 4 5 6 7 8 9 10 11 12 13 14 15 16 17 18 19 20 21 22 23 24 25 26 27 28 29 30 31 32 33 34 35 36 37 38 39 40 41 42 43 44 45 46 47 48 49 50
445
ASUS45 KBOU 180807
RWRCO

WEATHER ROUNDUP FOR COLORADO
NATIONAL WEATHER SERVICE DENVER/BOULDER CO
200 AM MDT WED OCT 18 2017

NOTE: "FAIR" INDICATES FEW OR NO CLOUDS BELOW 12000 FEET WITH NO
SIGNIFICANT WEATHER AND/OR OBSTRUCTIONS TO VISIBILITY.

COZ001>005-013-030-031-180900-
...NORTHWEST COLORADO...

CITY           SKY/WX    TMP DP  RH WIND       PRES   REMARKS
CRAIG          FAIR      26  19  74 CALM      30.23F
HAYDEN         FAIR      37  16  42 E9        30.26S
MEEKER         FAIR      32  18  56 NE3       30.25S
RABBIT EARS PA FAIR      37   7  28 W9G20     30.39F
STEAMBOAT SPGS FAIR      32  17  54 NW5       30.26S WCI  27
WALDEN         FAIR      30  12  47 SE8       30.29F WCI  23
$$

COZ006>008-011-180900-
...WEST CENTRAL VALLEYS...

CITY           SKY/WX    TMP DP  RH WIND       PRES   REMARKS
GRAND JUNCTION FAIR      43  14  31 E10       30.20S
MONTROSE       FAIR      38  14  37 S7        30.27S
EAGLE          FAIR      32  17  54 SE3       30.31S
RIFLE          FAIR      36  18  48 CALM      30.26R
DELTA          FAIR      40  17  39 NE5       30.25S
NUCLA          FAIR      41   3  20 SE9       30.29F
$$

COZ017>023-064>068-180900-
...SOUTHWEST COLORADO...

CITY           SKY/WX    TMP DP  RH WIND       PRES   REMARKS
DURANGO        FAIR      37  17  44 CALM      30.28F
CORTEZ         FAIR      33  14  45 E3        30.26F
PAGOSA SPRINGS FAIR      32  15  49 CALM      30.34S
TELLURIDE      NOT AVBL
WOLF CREEK PAS FAIR      36   3  25 SW10      30.56F
$$

COZ009-010-012-014-032>034-037-058>063-180900-
...CENTRAL COLORADO...

CITY           SKY/WX    TMP DP  RH WIND       PRES   REMARKS
ASPEN          FAIR      34  14  43 S8        30.32S WCI  27
BUENA VISTA    FAIR      34  14  43 W8        30.31F WCI  27
COPPER MTN     FAIR      41  -8  12 W12G21    30.50S
BERTHOUD PASS  FAIR      34  27  75 NW33G39   30.47F WCI  19
COTTONWOOD PAS FAIR      50  -8   9 W5        30.39F
GUNNISON       FAIR      23  14  68 CALM      30.38S
KREMMLING      FAIR      30  19  64 CALM      30.32S
LEADVILLE      FAIR      30   5  34 CALM      30.39S
SALIDA         NOT AVBL
SUNLIGHT       FAIR      36   1  23 SW9       30.48F
WILKERSON PASS FAIR      39   1  20 SW12G18   30.47S
$$

COZ069>075-180900-
...SAN LUIS VALLEY/SANGRE DE CRISTO MOUNTAINS...

CITY           SKY/WX    TMP DP  RH WIND       PRES   REMARKS
ALAMOSA        FAIR      30  17  58 NW3       30.31S
DEL NORTE      FAIR      42  15  32 W12       30.33F
LA VETA PASS   FAIR      41  10  28 SW26G33   30.50F
SAGUACHE       FAIR      37   9  30 N12       30.33S
$$

COZ035-036-038>040-180900-
...NORTHERN COLORADO FRONT RANGE...

CITY           SKY/WX    TMP DP  RH WIND       PRES   REMARKS
DENVER INTL AP FAIR      56  16  20 SW15      30.07S
DMNS CITY PARK   N/A     52  19  28 SE14      30.07S
AURORA         PTCLDY    51  18  27 S9        30.09S
FRONT RANGE AP FAIR      46  25  42 S12G18    30.09S
ERIE MUNI ARPT FAIR      51  21  30 W9        30.10F
BOULDER MUN AP FAIR      54  27  35 SW5       30.06R
CENTENNIAL     FAIR      53  16  23 S8        30.10S
BROOMFIELD     FAIR      54  19  26 W5        30.09S
FORT COLLINS   FAIR      48  35  60 N3        30.05S
LONGMONT       FAIR      59  21  22 W3        30.06S
$$

COZ041-046-047-076>085-087-088-180900-
...PIKES PEAK/PALMER DIVIDE AND SOUTHERN FOOTHILLS...

CITY           SKY/WX    TMP DP  RH WIND       PRES   REMARKS
COLO. SPRINGS  FAIR      42  23  46 N7        30.16F
A. F. ACADEMY  FAIR      41  17  37 N9        30.16F
SCHRIEVER AFB  FAIR      46  19  34 CALM      30.15F
CHEYENNE MTN   FAIR      57   9  15 NW10      30.12F
ELLICOTT       FAIR     N/A N/A N/A CALM      30.14F
FALCON         FAIR      44  18  35 W6        30.19F
FORT CARSON    FAIR      44  18  36 NW8       30.12F
LIMON          FAIR      32  27  81 N7        30.10F WCI  26
MONUMENT HILL  FAIR      48  16  27 SW13      30.19F
CANON CITY     CLEAR     54  18  24 W12       30.11F
WALSENBURG     FAIR      54  14  20 S3        30.15F
TRINIDAD       FAIR      45  22  40 W14       30.14S
$$

COZ042>045-048>051-090-091-180900-
...NORTHEAST COLORADO...

CITY           SKY/WX    TMP DP  RH WIND       PRES   REMARKS
GREELEY ARPT   NOT AVBL
AKRON          FAIR      55  22  27 SW15      30.01F
BURLINGTON     FAIR      46  33  60 SW10      30.03F
WRAY           FAIR      48  28  46 SW10      29.98F
YUMA           NOT AVBL
STERLING       FAIR      37  30  75 CALM      29.99S
HOLYOKE        FAIR      43  30  61 SW7       29.97S
FORT MORGAN    FAIR      44  23  43 W10       30.03S
$$

COZ086-089-092>099-180900-
...SOUTHEAST COLORADO...

CITY           SKY/WX    TMP DP  RH WIND       PRES   REMARKS
PUEBLO         FAIR      42  25  50 W7        30.09S
LA JUNTA       FAIR      43  33  68 W10       30.05S
LAMAR          FLURRIES  33  29  85 SW6       30.01F WCI  28
SPRINGFIELD      N/A     42  33  70 W9        30.05S
$$




USA.gov is the U.S. government's official web portal to all federal, state and local government web resources and services.